Location: ????? ????
(37.9717°N, 23.4051°E)
Time: 04:02:02
(UTC+00:00)

CZ-2C R/B - Pass Details

Date: 18 April 2024
Orbit: 782 x 869 km, 98.3° (Epoch: 20 May)

Event Time Altitude Azimuth Distance (km) Brightness Sun altitude
Exits shadow 23:54:40 29° 60° (ENE) 1,485 4.3 -36.5°
Drops below altitude 10° 23:58:50 10° 10° (N) 2,425 5.8 -36.1°
Sets 00:01:25 0° 359° (N) 3,347 6.6 -35.9°
